Location: Bottenau
(48.5138°N, 8.0462°E)
Time: 20:23:59
(UTC+00:00)

Orbus 7S? - Pass Details

Date: 18 April 2021
Orbit: 334 x 6415 km, 56.9° (Epoch: 06 May)

Event Time Altitude Azimuth Distance (km) Brightness Sun altitude
Rises 20:15:15 0° 242° (WSW) 2,208 6.7 -16.9°
Reaches altitude 10° 20:16:47 10° 245° (WSW) 1,498 5.8 -17.1°
Maximum altitude 20:19:47 70° 330° (NNW) 618 3.7 -17.5°
Drops below altitude 10° 20:25:46 10° 55° (NE) 2,953 6.9 -18.2°
Sets 20:29:58 0° 57° (ENE) 4,745 7.9 -18.7°
